Location: Star Hoppers Observatory
(42.7905°N, 83.6127°W)
Time: 12:27:25
(UTC-05:00)

Daily predictions for brighter satellites

Satellite Brightness Start Highest point End
(mag) Time Altitude Azimuth Time Altitude Azimuth Time Altitude Azimuth
Cosmos 2219 Rocket 3.0 17:57:19 10° SW 18:02:50 54° WNW 18:08:21 10° NNE
Cosmos 1743 Rocket 4.5 17:59:57 10° SSW 18:04:20 55° W 18:08:45 10° N
Cosmos 2058 3.1 18:01:13 10° SSE 18:05:10 49° E 18:09:08 10° NNE
CZ-4C R/B 4.5 18:03:04 10° NNW 18:06:00 13° NNE 18:09:05 10° NE
Meteor 1-11 4.4 18:00:37 10° S 18:06:10 58° E 18:11:50 10° NNE
Cosmos 1125 Rocket 4.1 18:02:08 10° NNW 18:07:17 63° WSW 18:12:23 10° S
Cosmos 1726 2.2 18:03:30 10° N 18:07:18 88° W 18:11:04 10° S
Cosmos 2279 Rocket 4.1 18:01:19 10° N 18:07:28 57° E 18:13:34 10° SSE
Cosmos 2333 Rocket 2.9 18:08:10 10° SW 18:13:42 57° WNW 18:19:17 10° NNE
Cosmos 1461 2.9 18:10:28 10° SSW 18:14:36 63° ESE 18:18:38 10° NE
Lacrosse 5 rocket 2.7 18:11:32 10° WNW 18:15:05 39° SW 18:18:48 10° SSE
Cosmos 304 Rocket 3.9 18:10:37 10° S 18:15:20 59° ESE 18:20:04 10° NNE
Cosmos 2278 Rocket 3.0 18:12:52 10° NNW 18:18:27 57° WSW 18:23:58 10° S
Cosmos 1242 Rocket 4.3 18:17:21 10° NE 18:18:43 12° ENE 18:20:03 10° E
CZ-4 R/B 4.4 18:15:48 10° SSE 18:19:57 86° ENE 18:24:06 10° NNW
Cosmos 1455 3.1 18:17:11 10° NNE 18:20:28 26° ENE 18:23:44 10° SE
Tiangong 1 3.5 18:19:54 10° SSE 18:20:43 11° SE 18:21:32 10° SE
Cosmos 1805 Rocket 3.9 18:18:10 10° SSE 18:22:26 47° E 18:26:44 10° NNE
Cosmos 1356 Rocket 3.9 18:20:46 10° SSE 18:24:23 35° E 18:28:03 10° NNE
SKYMED 2 3.8 18:21:15 10° NNE 18:25:30 49° E 18:29:42 10° S
Nadezhda 4 Rocket 4.4 18:21:51 10° SSE 18:27:38 41° E 18:33:28 10° NNE
Thor Agena Rocket 3.7 18:24:33 10° NNE 18:29:48 78° WNW 18:34:56 10° SSW
Cosmos 1538 Rocket 4.2 18:25:53 10° S 18:31:03 55° ESE 18:36:17 10° NNE
Sich 1 3.5 18:29:08 10° SSE 18:33:15 40° E 18:37:24 10° NNE
SPOT 3 Rocket 4.4 18:30:14 10° S 18:35:17 55° W 18:40:22 10° NNW
MSX 4.3 18:30:13 10° S 18:35:53 66° WSW 18:41:37 10° NNW
Cosmos 1703 3.2 18:32:41 10° S 18:36:33 67° E 18:40:25 10° NNE
Coronas F rocket 2.4 18:36:09 10° SE 18:37:55 20° E 18:37:55 20° E
Cosmos 2180 Rocket 4.4 18:32:36 10° N 18:38:49 82° E 18:45:04 10° S
Meteor 2-10 4.4 18:35:24 10° NNW 18:40:30 68° W 18:45:45 10° S
Cosmos 2237 Rocket 3.3 18:37:19 10° SW 18:42:40 43° WNW 18:48:03 10° NNE
SJ-6B 3.5 18:41:03 10° SE 18:44:47 35° ENE 18:48:34 10° N
Cosmos 1633 Rocket 3.3 18:40:51 10° SSE 18:45:03 46° E 18:49:17 10° NNE
Cosmos 2369 Rocket 3.4 18:40:48 10° N 18:45:04 21° NE 18:47:04 18° ENE
CZ-4 R/B 4.1 18:45:56 10° SW 18:48:57 22° W 18:52:02 10° NW
Cosmos 1092 Rocket 4.3 18:45:03 10° SSE 18:51:00 45° E 18:56:59 10° NNE
SL-16 R/B 2.3 18:46:04 10° SSW 18:51:43 81° WNW 18:57:25 10° NNE
Orbus 7S? 4.4 18:49:36 10° NW 18:53:33 53° NE 19:02:33 10° ESE
Lacrosse 5 3.7 18:50:59 10° NNW 18:54:16 17° N 18:56:21 14° NE
ATLAS 3B R/B 4.5 18:53:55 10° NNW 18:57:25 14° NNE 19:00:18 11° NE
USA 215 3.4 18:56:43 16° ESE 19:01:56 55° NNE 19:08:17 10° NW
Cosmos 773 Rocket 3.9 18:57:14 10° S 19:02:21 70° ESE 19:07:34 10° NNE
ALOS 2.8 18:58:24 10° SE 19:02:35 34° ENE 19:06:48 10° N
Cosmos 1484 Rocket 4.3 19:00:31 10° SSW 19:04:13 39° W 19:08:02 10° NNW
Meteor 1-28 Rocket 3.2 19:01:15 10° N 19:05:00 81° WNW 19:08:43 10° SSW
Abrixas 3.7 19:03:17 10° WNW 19:05:54 28° N 19:06:25 26° NNE
Cosmos 1862 Rocket 4.0 19:04:13 10° N 19:08:18 36° ENE 19:12:18 10° SE
Cosmos 2084 Rocket 4.2 19:06:17 10° NNW 19:09:20 27° NE 19:09:20 27° NE
METEOR-M 4.0 19:04:49 10° SSE 19:10:09 79° ENE 19:15:32 10° N
Cosmos 1707 Rocket 4.2 19:06:32 10° NNW 19:10:47 58° W 19:15:03 10° S
Cosmos 292 Rocket 3.9 19:07:32 10° S 19:12:06 50° ESE 19:14:24 27° NE
FENGYUN 3A 3.9 19:07:16 10° SE 19:12:20 45° ENE 19:17:26 10° N
COSMO-SKYMED 1 3.5 19:09:20 10° N 19:13:32 49° WNW 19:17:43 10° SSW
NOAA 12 4.1 19:09:47 10° SSE 19:15:01 87° WSW 19:20:20 10° NNW
Cosmos 2112 Rocket 4.2 19:16:47 10° S 19:21:43 46° ESE 19:23:17 35° ENE
Cosmos 1666 Rocket 4.2 19:17:52 10° SSW 19:22:07 55° W 19:26:28 10° N
Cosmos 1869 3.3 19:19:45 10° N 19:23:49 85° W 19:27:51 10° S
Lacrosse 4 Rocket 1.8 19:24:34 10° NW 19:28:36 61° WSW 19:32:35 10° SSE
Cosmos 1943 3.8 19:23:45 10° SSE 19:28:35 35° ESE 19:28:35 35° ESE
ATLAS 5 CENTAUR R/B 3.4 19:24:42 10° NNW 19:29:30 26° NE 19:29:30 26° NE
Cosmos 1626 3.9 19:26:21 10° SW 19:29:45 33° WNW 19:33:10 10° N
Cosmos 1933 Rocket 3.4 19:29:11 10° S 19:33:36 73° E 19:35:24 35° NNE
Resurs 1-3 4.2 19:36:48 41° NNE 19:36:48 41° NNE 19:39:55 10° N
Blok-2BL 3.9 19:32:39 10° NW 19:35:09 48° NW 19:35:09 48° NW
Resurs 01 Rocket 1.5 19:34:52 19° SSE 19:38:02 71° ENE 19:42:29 10° N
H-2A ROCKET BODY 4.1 19:21:34 10° WSW 19:41:23 34° SSW 19:45:25 18° SSE
SL-19 R/B 4.2 19:36:01 10° SSE 19:41:51 89° WSW 19:47:28 10° NNW
Cosmos 1943 Rocket 3.5 19:41:48 10° N 19:44:33 23° NNE 19:44:33 23° NNE
USA 229 DEB 3.9 19:40:54 10° SW 19:47:45 71° NW 19:51:58 26° NNE
USA 229 3.9 19:41:00 10° SW 19:47:50 71° NW 19:52:02 26° NNE
Iridium 4 Rocket 3.7 19:46:16 10° SSW 19:50:35 54° W 19:54:43 10° N
Cosmos 1627 Rocket 4.3 19:44:57 10° S 19:51:08 83° E 19:57:17 10° N
Cosmos 1655 Rocket 3.9 19:45:44 10° S 19:52:01 65° E 19:58:17 10° NNE
Spot 2 Rocket 3.4 19:47:16 10° SSE 19:52:19 87° WSW 19:57:24 10° NNW
Cosmos 1242 Rocket 3.8 19:50:40 10° NNW 19:53:56 39° W 19:57:13 10° SSW
Cosmos 1470 Rocket 4.0 19:51:00 10° SSW 19:55:17 59° W 19:57:06 32° NNW
Tiangong 1 3.7 19:53:25 10° SW 19:54:18 17° SW 19:54:18 17° SW
Cosmos 1603 3.9 19:51:09 10° SW 19:56:43 66° WNW 19:59:29 30° N
CZ-4C R/B 3.7 19:50:59 10° NNW 19:56:24 30° NNE 19:56:24 30° NNE
NOSS 3-1 (A) 3.9 19:55:58 10° S 20:00:05 40° SSE 20:00:05 40° SSE
S3M 4.2 20:06:57 10° N 20:12:05 57° NNE 20:12:05 57° NNE
Cosmos 2026 Rocket 4.1 20:10:02 10° SSW 20:16:12 71° W 20:22:20 10° N
BREEZE-M DEB (TANK) 4.3 20:08:37 10° WNW 20:21:03 53° N 20:21:03 53° N
Cosmos 2369 Rocket 2.5 20:23:59 10° NNW 20:28:57 61° WNW 20:28:57 61° WNW
Lacrosse 5 4.0 20:33:56 10° NW 20:35:34 19° NNW 20:35:34 19° NNW
NOSS 3-1 (C) 3.8 20:32:48 10° SW 20:37:28 58° WSW 20:37:28 58° WSW
ALOS 4.3 20:36:14 10° SSW 20:40:04 25° W 20:43:57 10° NW
Cosmos 1553 Rocket 4.4 20:34:22 10° NNW 20:39:22 57° NW 20:39:22 57° NW
USA 215 3.8 20:44:05 48° SSW 20:44:57 50° SW 20:51:18 10° WNW
ATLAS 3B R/B 4.3 20:44:29 10° NNW 20:47:34 23° N 20:47:34 23° N
ATLAS 5 CENTAUR R/B 4.2 21:08:50 10° NW 21:11:05 25° NW 21:11:05 25° NW
